E24OWX-1 Weather Reports


time (UTC)temp
F
wind
direction
speed
knots
gust
knots
rain 1hr
in
rain 24hr
in
rain mn
in
humidity
%
barometer
mb
20260505031254 83 0 0.0 0.0 0.00 0.00 0.00 99 1011.0
20260505025732 82 0 0.0 0.0 0.00 0.00 0.00 99 1011.0
20260505024210 81 0 0.0 0.0 0.00 0.00 0.00 99 1011.0
20260505022648 81 0 0.0 0.0 0.00 0.00 0.00 99 1011.0
20260505021126 81 0 0.0 0.0 0.00 0.00 0.00 99 1011.0
20260505015604 80 0 0.0 0.0 0.00 0.00 0.00 99 1011.0
20260505014042 80 0 0.0 0.0 0.00 0.00 0.00 99 1011.0
20260505012520 81 0 0.0 0.0 0.00 0.00 0.00 99 1011.0
20260505010958 81 0 0.0 0.0 0.00 0.00 0.00 99 1011.0
20260505005436 81 0 0.0 0.0 0.00 0.00 0.00 99 1011.0
20260505003914 81 0 0.0 0.0 0.00 0.00 0.00 99 1011.0
20260505002352 81 0 0.0 0.0 0.00 0.00 0.00 99 1011.0
20260505000830 81 0 0.0 0.0 0.00 0.00 0.00 99 1010.0
20260504235308 80 0 0.0 0.0 0.00 0.00 0.00 99 1010.0
20260504233746 80 0 0.0 0.0 0.00 0.00 0.00 99 1010.0
20260504232224 81 0 0.0 0.0 0.00 0.00 0.00 99 1010.0
20260504230702 81 0 0.0 0.0 0.00 0.00 0.00 99 1010.0
20260504225140 81 0 0.0 0.0 0.00 0.00 0.00 99 1010.0
20260504223618 82 0 0.0 0.0 0.00 0.00 0.00 99 1009.0
20260504222056 82 0 0.0 0.0 0.00 0.00 0.00 99 1009.0
20260504220534 82 0 0.0 0.0 0.00 0.00 0.00 99 1009.0
20260504215012 81 0 0.0 0.0 0.00 0.00 0.00 99 1009.0
20260504213450 81 0 0.0 0.0 0.00 0.00 0.00 99 1009.0
20260504211928 81 0 0.0 0.0 0.00 0.00 0.00 99 1009.0
20260504210406 81 0 0.0 0.0 0.00 0.00 0.00 99 1008.0
20260504204844 80 0 0.0 0.0 0.00 0.00 0.00 99 1009.0
20260504203322 81 0 0.0 0.0 0.00 0.00 0.00 99 1009.0
20260504201800 82 0 0.0 0.0 0.00 0.00 0.00 99 1009.0
20260504200238 82 0 0.0 0.0 0.00 0.00 0.00 99 1009.0
20260504194716 83 0 0.0 0.0 0.00 0.00 0.00 99 1009.0
20260504193154 84 0 0.0 0.0 0.00 0.00 0.00 99 1009.0
20260504191632 84 0 0.0 0.0 0.00 0.00 0.00 99 1008.0
20260504190110 85 0 0.0 0.0 0.00 0.00 0.00 99 1008.0
20260504184548 86 0 0.0 0.0 0.00 0.00 0.00 99 1009.0
20260504183026 85 0 0.0 0.0 0.00 0.00 0.00 99 1009.0
20260504181504 86 0 0.0 0.0 0.00 0.00 0.00 99 1009.0
20260504175942 87 0 0.0 0.0 0.00 0.00 0.00 99 1008.0
20260504174420 87 0 0.0 0.0 0.00 0.00 0.00 99 1008.0
20260504172858 87 0 0.0 0.0 0.00 0.00 0.00 99 1009.0
20260504171336 87 0 0.0 0.0 0.00 0.00 0.00 99 1009.0
20260504151040 89 0 0.0 0.0 0.00 0.00 0.00 99 1009.0
20260504140912 90 0 0.0 0.0 0.00 0.00 0.00 99 1008.0
20260504140104 90 0 0.0 0.0 0.00 0.00 0.00 99 1007.0
20260504110426 93 0 0.0 0.0 0.00 0.00 0.00 99 1005.0
20260504100254 94 0 0.0 0.0 0.00 0.00 0.00 99 1004.0
20260504090121 96 0 0.0 0.0 0.00 0.00 0.00 99 1004.0
20260504080803 102 0 0.0 0.0 0.00 0.00 0.00 81 1004.0
20260504050340 101 0 0.0 0.0 0.00 0.00 0.00 87 1008.0
20260504044818 100 0 0.0 0.0 0.00 0.00 0.00 90 1008.0
20260504043255 100 0 0.0 0.0 0.00 0.00 0.00 92 1008.0
20260504041734 99 0 0.0 0.0 0.00 0.00 0.00 96 1008.0
20260504040211 99 0 0.0 0.0 0.00 0.00 0.00 96 1009.0
20260504034649 99 0 0.0 0.0 0.00 0.00 0.00 99 1009.0
20260504033127 98 0 0.0 0.0 0.00 0.00 0.00 99 1009.0